Home > Weather > Chilliwack > Past weeks

Flag for Canada Weather for the Past 2 Weeks in Chilliwack, British Columbia, Canada

Now
46 °F

Cool.


Feels Like: 40 °F
Forecast: 39 / 46 °F
Wind: 13 mph from Southwest

Location: Agassiz

Current Time: Feb 6, 2016 at 12:09:17 AM

Latest Report: Feb 5, 2016 at 11:00 PM


Visibility: N/A

Pressure: 30.07 "Hg

Humidity: 78%

Dew point: 40 °F

Location of ChilliwackLocation

Historic Weather in Chilliwack — Graph

°F

Chilliwack Temperature Yesterday

Maximum temperature yesterday: 48 °F (at 2:00 PM)
Minimum temperature yesterday: 39 °F (at 3:00 AM)
Average temperature yesterday: 43 °F

High & Low Weather Summary for the Past Weeks

 TemperatureHumidityPressure
High53 °F (Jan 28, 2:00 PM)100% (Jan 25, 1:00 AM)30.37 "Hg (Jan 25, 1:00 AM)
Low34 °F (Jan 25, 2:00 AM)60% (Jan 25, 3:00 PM)29.58 "Hg (Jan 29, 12:00 PM)
Average42 °F86%30.04 "Hg
* Reported Jan 21 10:00 PM — Feb 5 10:00 PM, Chilliwack, Weather by CustomWeather, © 2016

Note: Actual official high and low records may vary slightly from our data, if they occured in-between our weather recording intervals... More about our weather records

Advertising

Chilliwack Weather History for the Previous 24 Hours

 ConditionsComfort  
Time TempWeatherWind HumidityBarometerVisibility
10:00 PM
Fri, Feb 5
48 °FCool.6 mph82%29.96 "HgN/A
9:00 PM45 °FQuite cool.3 mph96%29.93 "HgN/A
8:00 PM44 °FQuite cool.5 mph94%29.92 "HgN/A
7:00 PM46 °FCool.6 mph90%29.90 "HgN/A
6:00 PM44 °FQuite cool.2 mph94%29.99 "HgN/A
5:00 PM45 °FCool.8 mph90%29.93 "HgN/A
4:00 PM46 °FCool.3 mph86%29.90 "HgN/A
3:00 PM48 °FCool.6 mph78%29.93 "HgN/A
2:00 PM48 °FCool.6 mph77%29.98 "HgN/A
1:00 PM46 °FCool.5 mph85%30.04 "HgN/A
12:00 PM44 °FQuite cool.3 mph89%30.06 "HgN/A
11:00 AM43 °FQuite cool.2 mph93%30.12 "HgN/A
10:00 AM40 °FQuite cool.1 mph98%30.14 "HgN/A
9:00 AM41 °FQuite cool.5 mph91%30.14 "HgN/A
8:00 AM40 °FQuite cool.3 mph93%30.14 "HgN/A
7:00 AM42 °FQuite cool.3 mph89%30.17 "HgN/A
6:00 AM42 °FQuite cool.3 mph87%30.21 "HgN/A
5:00 AM40 °FQuite cool.5 mph93%30.26 "HgN/A
4:00 AM40 °FChilly.1 mph94%30.28 "HgN/A
3:00 AM39 °FChilly.1 mph96%30.31 "HgN/A
2:00 AM40 °FChilly.1 mph96%30.33 "HgN/A
1:00 AM40 °FChilly.2 mph95%30.34 "HgN/A
12:00 AM40 °FChilly.5 mph97%30.35 "HgN/A
Weather by CustomWeather, © 2016

See weather overviewHow to use our weather pages